Location: Ashtead
(51.3000°N, 0.3000°W)
Time: 04:33:14
(UTC+00:00)

Cosmos 1500 Rocket - Pass Details

Date: 26 September 2023
Orbit: 600 x 629 km, 82.5° (Epoch: 29 November)

Event Time Altitude Azimuth Distance (km) Brightness Sun altitude
Rises 05:17:24 0° 341° (NNW) 2,917 6.9 -6.4°
Reaches altitude 10° 05:19:51 10° 331° (NNW) 2,000 5.9 -6.0°
Maximum altitude 05:23:41 30° 271° (W) 1,126 4.4 -5.4°
Drops below altitude 10° 05:27:29 10° 211° (SSW) 1,970 5.8 -4.8°
Sets 05:29:53 0° 200° (SSW) 2,864 6.7 -4.5°
